TimeCDT,TemperatureF,Dew PointF,Humidity,Sea Level PressureIn,VisibilityMPH,Wind Direction,Wind SpeedMPH,Gust SpeedMPH,PrecipitationIn,Events,Conditions,WindDirDegrees,DateUTC
12:15 AM,64.4,53.6,68,30.16,10.0,South,16.1,20.7,N/A,,Clear,180,2011-10-08 05:15:00
12:35 AM,64.4,53.6,68,30.17,10.0,South,12.7,-,N/A,,Clear,180,2011-10-08 05:35:00
1:15 AM,64.4,53.6,68,30.18,10.0,South,10.4,-,N/A,,Clear,180,2011-10-08 06:15:00
1:35 AM,64.4,53.6,68,30.18,10.0,South,9.2,-,N/A,,Clear,190,2011-10-08 06:35:00
1:55 AM,64.4,53.6,68,30.19,10.0,SSW,10.4,-,N/A,,Clear,200,2011-10-08 06:55:00
2:15 AM,64.4,53.6,68,30.19,10.0,SSW,10.4,-,N/A,,Clear,200,2011-10-08 07:15:00
2:35 AM,64.4,53.6,68,30.20,10.0,South,10.4,-,N/A,,Clear,190,2011-10-08 07:35:00
2:55 AM,62.6,53.6,72,30.20,10.0,South,10.4,-,N/A,,Clear,190,2011-10-08 07:55:00
3:15 AM,62.6,53.6,72,30.21,10.0,SSW,10.4,-,N/A,,Clear,200,2011-10-08 08:15:00
3:35 AM,62.6,53.6,72,30.21,10.0,South,9.2,-,N/A,,Clear,190,2011-10-08 08:35:00
3:55 AM,62.6,53.6,72,30.21,10.0,South,9.2,-,N/A,,Clear,190,2011-10-08 08:55:00
4:15 AM,62.6,53.6,72,30.22,10.0,South,9.2,-,N/A,,Clear,190,2011-10-08 09:15:00
4:35 AM,62.6,53.6,72,30.22,10.0,South,9.2,-,N/A,,Clear,190,2011-10-08 09:35:00
4:55 AM,60.8,53.6,77,30.23,10.0,South,9.2,-,N/A,,Clear,190,2011-10-08 09:55:00
5:15 AM,60.8,53.6,77,30.23,10.0,South,8.1,-,N/A,,Clear,190,2011-10-08 10:15:00
5:35 AM,60.8,53.6,77,30.23,10.0,South,9.2,-,N/A,,Clear,190,2011-10-08 10:35:00
5:55 AM,60.8,53.6,77,30.24,10.0,South,9.2,-,N/A,,Clear,190,2011-10-08 10:55:00
6:15 AM,60.8,53.6,77,30.23,10.0,South,9.2,-,N/A,,Clear,190,2011-10-08 11:15:00
6:35 AM,60.8,53.6,77,30.24,10.0,South,11.5,-,N/A,,Clear,190,2011-10-08 11:35:00
6:55 AM,60.8,53.6,77,30.24,10.0,SSW,10.4,-,N/A,,Clear,200,2011-10-08 11:55:00
7:15 AM,60.8,53.6,77,30.24,10.0,South,10.4,-,N/A,,Clear,190,2011-10-08 12:15:00
7:35 AM,60.8,53.6,77,30.24,10.0,South,9.2,-,N/A,,Clear,190,2011-10-08 12:35:00
7:55 AM,62.6,53.6,72,30.25,10.0,South,9.2,-,N/A,,Clear,190,2011-10-08 12:55:00
8:15 AM,62.6,53.6,72,30.26,10.0,South,9.2,-,N/A,,Clear,180,2011-10-08 13:15:00
8:35 AM,62.6,53.6,72,30.26,10.0,South,10.4,-,N/A,,Clear,190,2011-10-08 13:35:00
8:55 AM,64.4,55.4,73,30.26,10.0,South,9.2,-,N/A,,Clear,180,2011-10-08 13:55:00
9:15 AM,66.2,55.4,68,30.27,10.0,South,11.5,16.1,N/A,,Clear,190,2011-10-08 14:15:00
9:35 AM,66.2,55.4,68,30.26,10.0,South,10.4,-,N/A,,Clear,190,2011-10-08 14:35:00
9:55 AM,68.0,55.4,64,30.27,10.0,SSW,11.5,-,N/A,,Clear,200,2011-10-08 14:55:00
10:15 AM,69.8,55.4,60,30.27,10.0,South,10.4,-,N/A,,Clear,190,2011-10-08 15:15:00
10:35 AM,71.6,55.4,57,30.25,10.0,South,13.8,17.3,N/A,,Clear,190,2011-10-08 15:35:00
11:15 AM,73.4,57.2,57,30.28,10.0,South,12.7,-,N/A,,Clear,180,2011-10-08 16:15:00
11:35 AM,73.4,57.2,57,30.27,10.0,SSE,9.2,19.6,N/A,,Clear,160,2011-10-08 16:35:00
11:55 AM,73.4,57.2,57,30.27,10.0,SSE,9.2,-,N/A,,Clear,150,2011-10-08 16:55:00
12:15 PM,73.4,57.2,57,30.27,10.0,South,9.2,-,N/A,,Clear,170,2011-10-08 17:15:00
12:35 PM,73.4,57.2,57,30.27,10.0,SSE,9.2,-,N/A,,Clear,160,2011-10-08 17:35:00
12:55 PM,73.4,59.0,61,30.27,10.0,SSE,10.4,-,N/A,,Clear,160,2011-10-08 17:55:00
1:15 PM,73.4,59.0,61,30.26,10.0,SSE,9.2,-,N/A,,Clear,160,2011-10-08 18:15:00
1:35 PM,75.2,57.2,53,30.25,10.0,South,9.2,-,N/A,,Clear,170,2011-10-08 18:35:00
1:55 PM,75.2,57.2,53,30.25,10.0,SSE,10.4,-,N/A,,Clear,150,2011-10-08 18:55:00
2:15 PM,71.6,57.2,60,30.25,10.0,SSE,12.7,-,N/A,,Clear,160,2011-10-08 19:15:00
2:35 PM,71.6,57.2,60,30.24,10.0,South,12.7,16.1,N/A,,Clear,170,2011-10-08 19:35:00
2:55 PM,71.6,57.2,60,30.24,10.0,SSE,11.5,-,N/A,,Clear,160,2011-10-08 19:55:00
3:15 PM,71.6,57.2,60,30.24,10.0,South,13.8,18.4,N/A,,Clear,180,2011-10-08 20:15:00
3:35 PM,69.8,57.2,64,30.24,10.0,South,15.0,19.6,N/A,,Clear,180,2011-10-08 20:35:00
3:55 PM,69.8,57.2,64,30.23,10.0,South,15.0,21.9,N/A,,Clear,170,2011-10-08 20:55:00
4:15 PM,68.0,57.2,68,30.23,10.0,South,16.1,19.6,N/A,,Clear,170,2011-10-08 21:15:00
4:35 PM,66.2,55.4,68,30.22,10.0,South,15.0,21.9,N/A,,Clear,170,2011-10-08 21:35:00
4:55 PM,66.2,55.4,68,30.22,10.0,South,16.1,20.7,N/A,,Clear,170,2011-10-08 21:55:00
5:15 PM,66.2,55.4,68,30.22,10.0,South,13.8,-,N/A,,Clear,170,2011-10-08 22:15:00
5:35 PM,64.4,55.4,73,30.21,10.0,South,12.7,-,N/A,,Clear,180,2011-10-08 22:35:00
5:55 PM,64.4,55.4,73,30.21,10.0,South,15.0,20.7,N/A,,Clear,180,2011-10-08 22:55:00
6:15 PM,64.4,55.4,73,30.21,10.0,South,13.8,-,N/A,,Clear,180,2011-10-08 23:15:00
6:35 PM,64.4,55.4,73,30.21,10.0,South,12.7,-,N/A,,Clear,170,2011-10-08 23:35:00
6:55 PM,62.6,55.4,77,30.22,10.0,South,10.4,16.1,N/A,,Clear,170,2011-10-08 23:55:00
7:15 PM,62.6,55.4,77,30.21,10.0,South,10.4,-,N/A,,Clear,170,2011-10-09 00:15:00
7:35 PM,62.6,55.4,77,30.21,10.0,South,11.5,-,N/A,,Clear,170,2011-10-09 00:35:00
7:55 PM,62.6,55.4,77,30.21,10.0,South,11.5,-,N/A,,Clear,180,2011-10-09 00:55:00
8:15 PM,62.6,55.4,77,30.22,10.0,South,12.7,-,N/A,,Clear,180,2011-10-09 01:15:00
8:35 PM,64.4,55.4,73,30.22,10.0,South,12.7,-,N/A,,Clear,180,2011-10-09 01:35:00
9:15 PM,64.4,55.4,73,30.22,10.0,South,10.4,-,N/A,,Clear,180,2011-10-09 02:15:00
9:35 PM,64.4,55.4,73,30.21,10.0,South,11.5,-,N/A,,Clear,190,2011-10-09 02:35:00
9:55 PM,64.4,55.4,73,30.21,10.0,South,10.4,-,N/A,,Clear,190,2011-10-09 02:55:00
10:15 PM,64.4,55.4,73,30.22,10.0,South,10.4,-,N/A,,Clear,190,2011-10-09 03:15:00
10:35 PM,64.4,55.4,73,30.23,10.0,SSW,9.2,-,N/A,,Clear,200,2011-10-09 03:35:00
10:55 PM,64.4,55.4,73,30.23,10.0,SSW,10.4,-,N/A,,Clear,200,2011-10-09 03:55:00
11:15 PM,64.4,55.4,73,30.23,10.0,SSW,10.4,-,N/A,,Clear,200,2011-10-09 04:15:00
11:35 PM,64.4,55.4,73,30.24,10.0,SSW,10.4,-,N/A,,Clear,200,2011-10-09 04:35:00
11:55 PM,64.4,55.4,73,30.24,10.0,SSW,9.2,-,N/A,,Clear,200,2011-10-09 04:55:00